Temp
7 7 8 8 8 8 8 8 8 8 8 8 8 8 8 8 8 8 8 8 8 8 8 8 8 8 8 8 8 8 8 7 8 7 8 13 17 18 18 18 19 18 18 19 18 18 19 19 19 19 20 21 20 21 21 21 21 22 22 22 21 22 22 23 24 24 24 25 26 25 24 24 24 23 23 24 24 23 23 22 22 22 23 23 22 21 20 19
7 7 7 8 8 8 8 8 8 8 8 8 8 8 8 8 8 8 8 8 8 8 8 8 8 8 8 8 8 7 7 7 8 8 11 17 18 17 19 18 18 19 18 18 18 18 19 19 19 19 20 21 20 21 21 21 22 22 21 21 22 22 23 23 23 24 24 25 26 25 24 24 25 24 23 24 23 23 23 22 22 22 21 21 21 21 20 19
7 7 7 7 8 8 8 8 8 8 8 8 8 8 8 8 8 8 8 8 8 8 8 7 8 8 8 8 7 8 8 7 9 12 15 17 17 18 19 19 18 18 17 18 18 18 20 20 18 19 20 21 20 20 21 21 22 22 21 22 22 22 22 22 22 23 24 24 24 25 24 23 24 24 24 23 23 23 23 21 22 21 20 20 20 20 20 20
6 6 6 7 7 8 8 8 8 8 8 8 8 8 8 8 8 8 8 8 8 8 8 7 7 8 8 7 7 8 7 9 13 15 16 16 17 18 18 19 19 18 17 17 18 18 19 19 19 19 20 20 20 20 21 22 21 22 22 23 23 21 22 23 23 24 23 23 23 24 24 24 24 24 24 23 23 24 23 23 22 22 21 20 20 20 20 20
6 6 6 7 7 7 7 8 8 8 8 8 8 8 8 8 8 8 8 8 8 8 8 7 7 7 8 7 8 7 8 13 16 15 15 16 17 18 18 19 19 19 18 17 18 17 18 19 19 19 20 21 20 20 21 21 21 22 21 22 23 21 23 25 24 23 23 22 23 23 24 25 24 24 24 24 24 24 24 24 23 23 22 20 20 20 20 20
6 6 6 6 6 7 7 7 8 8 8 8 8 8 8 8 8 8 8 8 7 8 7 7 7 7 7 7 8 7 9 15 16 13 15 16 16 18 18 19 19 19 18 17 17 17 18 19 20 20 20 21 20 21 21 21 21 22 22 21 22 22 23 24 24 24 23 23 23 23 24 25 24 24 24 24 23 24 24 24 23 23 22 21 21 20 20 20
6 6 6 6 6 6 7 7 7 8 8 8 8 8 8 8 8 8 8 7 7 7 7 7 7 7 7 7 8 7 8 12 13 14 15 15 16 17 18 19 19 18 17 17 17 18 18 19 20 20 20 21 20 21 21 21 21 22 22 22 22 22 22 24 24 23 23 23 23 23 24 24 24 24 23 23 22 22 23 23 23 23 22 21 20 20 20 20
6 6 6 6 6 6 6 6 7 7 8 8 8 8 8 8 8 8 8 7 7 7 7 7 7 7 7 7 7 7 7 10 13 15 14 15 16 16 17 17 17 17 16 17 18 18 18 19 20 19 21 21 20 21 21 21 21 21 22 22 23 23 23 23 23 22 23 22 22 22 22 24 24 24 22 22 22 22 23 22 22 22 21 21 20 20 20 20
6 6 6 6 6 6 6 6 6 7 7 7 8 8 8 8 7 7 7 7 7 7 7 7 7 7 7 7 7 7 9 12 14 14 14 15 15 15 16 15 15 16 16 17 18 18 19 20 20 20 21 21 20 21 21 21 22 22 22 23 23 24 24 23 22 23 23 22 22 22 22 23 23 23 23 21 22 22 22 22 21 21 20 20 20 20 19 19
6 6 6 6 6 6 6 6 6 7 7 7 7 7 7 8 7 7 7 7 7 7 7 7 7 7 6 7 7 8 12 13 14 14 14 15 15 15 15 15 14 15 17 17 17 18 19 20 20 20 21 20 20 21 21 22 22 22 22 23 23 23 23 23 23 24 23 22 23 22 22 22 23 24 23 21 22 22 21 21 21 20 20 20 20 19 19 19
6 6 6 6 6 6 6 6 6 7 7 7 7 7 7 7 7 7 7 7 7 7 7 7 7 6 6 7 6 8 13 14 13 14 14 15 15 15 15 15 15 16 17 17 18 19 19 20 20 20 21 21 21 20 21 22 22 22 22 23 23 23 22 22 23 23 23 23 23 23 22 23 24 24 23 21 22 22 21 21 20 20 19 19 19 18 19 18
6 6 6 6 6 6 6 6 6 6 7 6 6 7 7 7 7 7 7 7 7 7 7 7 6 6 7 7 6 9 13 14 13 14 14 14 15 16 15 14 15 16 17 18 18 19 20 20 20 20 21 21 21 21 21 21 21 22 22 23 24 24 24 24 24 23 23 24 23 24 24 23 23 22 22 21 22 22 21 20 19 18 18 17 17 18 18 18
6 6 6 6 6 6 6 6 6 6 7 6 6 6 7 7 7 7 7 7 7 7 7 7 6 6 6 6 7 10 13 13 13 13 14 14 14 16 16 14 15 16 18 19 19 19 19 20 20 21 20 21 22 21 21 21 21 22 22 23 24 24 24 25 23 23 24 23 23 24 23 22 22 21 20 21 22 21 20 18 18 18 18 17 17 17 17 17
6 6 6 6 6 6 6 6 6 6 6 6 6 6 6 7 7 7 7 7 7 7 7 6 6 6 6 6 8 11 12 12 11 12 14 14 14 16 16 15 16 16 18 19 19 19 19 20 20 20 20 20 21 21 21 21 21 23 22 22 22 22 24 24 22 23 25 22 22 25 23 22 22 20 19 20 21 20 19 18 19 19 18 17 17 17 17 16
6 6 6 6 6 6 6 6 6 6 6 6 6 6 6 6 7 7 7 7 7 6 6 6 6 6 6 6 9 11 11 11 11 12 14 14 14 16 17 16 16 17 18 18 19 19 19 20 20 20 20 20 20 21 21 21 21 22 22 21 21 21 23 24 22 23 25 22 22 25 23 22 22 20 19 19 20 20 19 19 19 19 18 17 17 17 17 16
6 6 6 6 6 6 6 6 6 6 6 6 6 6 6 6 7 7 7 7 7 6 6 6 6 6 6 7 10 11 12 11 12 13 14 14 14 16 17 16 16 17 18 18 19 19 19 20 19 19 20 20 21 22 21 21 21 21 21 21 21 21 23 24 22 21 23 23 23 24 23 22 22 20 19 18 19 19 19 19 19 18 18 17 17 17 17 17
6 6 6 6 6 6 6 6 6 6 6 6 6 6 6 6 6 6 7 6 6 6 6 7 6 6 7 9 11 12 12 12 13 13 14 14 14 16 17 16 16 16 17 18 18 19 18 19 19 19 20 20 20 21 21 20 20 21 21 21 21 21 21 22 23 22 22 24 23 23 23 21 20 19 18 18 18 17 17 17 18 18 17 17 17 17 18 18
5 5 6 5 5 5 6 6 6 6 6 6 5 6 6 6 6 6 6 6 6 6 6 6 6 7 9 10 10 11 11 11 12 13 14 15 14 15 17 17 16 17 17 17 18 18 18 18 18 19 19 19 20 21 21 20 20 20 20 21 21 21 21 22 23 21 21 23 23 22 21 18 18 17 17 18 18 18 17 17 18 19 18 18 18 18 18 18
5 5 5 6 6 5 6 5 5 6 5 5 5 6 6 6 6 6 6 6 6 6 7 6 6 9 10 10 9 10 10 11 12 13 14 15 15 15 17 17 17 17 17 17 17 17 18 18 18 19 19 19 20 21 21 20 21 21 21 22 21 21 21 21 21 20 20 22 21 21 20 18 17 18 18 18 18 19 18 18 19 19 19 19 18 18 18 18
5 5 5 6 6 6 5 5 5 5 5 5 5 5 5 5 6 6 5 6 6 7 8 7 7 8 10 9 10 10 10 12 12 13 14 15 15 16 16 17 17 17 18 17 17 17 18 18 18 19 19 19 19 20 21 20 21 21 22 22 21 22 22 20 20 19 19 20 19 19 19 17 17 17 18 18 19 19 18 18 19 19 19 19 19 18 18 18
5 5 5 5 6 6 5 5 5 5 5 5 5 5 6 6 6 6 6 6 7 8 8 8 8 8 9 10 10 9 10 11 12 12 14 14 15 17 17 17 17 17 17 18 17 17 18 18 18 19 19 19 19 19 20 20 20 21 21 22 21 22 21 19 19 19 20 20 19 19 18 17 17 17 18 19 19 19 19 19 18 18 18 18 18 18 17 17
5 5 5 5 5 5 5 5 5 5 5 5 4 5 6 6 6 6 6 7 7 8 7 8 8 8 8 9 9 9 9 9 11 13 14 15 16 17 17 17 17 16 16 17 17 16 17 17 18 18 18 19 18 19 21 21 20 20 21 21 21 21 21 20 19 20 21 20 19 19 18 17 17 17 18 19 19 18 18 18 17 17 17 16 16 16 16 16
5 5 5 5 5 5 5 5 5 5 5 5 5 5 6 6 6 6 6 7 7 8 7 7 7 7 8 8 8 9 8 9 10 13 14 15 15 16 17 17 17 16 16 17 17 17 17 17 18 17 17 19 18 19 21 21 20 20 20 21 21 20 20 21 19 19 20 20 19 19 18 17 17 17 17 18 18 18 17 17 17 17 17 16 16 15 15 15
5 5 5 5 5 5 5 5 4 4 5 5 5 5 5 5 5 5 6 6 7 8 8 8 8 8 8 9 9 9 9 10 10 12 14 15 15 16 17 17 16 16 16 17 18 17 17 18 17 16 18 19 18 18 20 21 20 19 20 21 21 20 20 20 19 20 20 20 21 20 19 18 18 17 17 18 18 17 17 17 17 17 16 16 16 15 15 15
5 5 5 5 5 5 5 4 4 4 5 5 5 5 5 5 6 5 6 7 7 7 8 8 8 9 9 10 10 10 10 10 11 12 14 14 16 16 16 17 17 16 16 16 17 18 18 17 16 17 18 19 19 18 19 21 21 20 20 20 21 21 20 18 19 20 20 20 20 20 20 19 18 18 18 17 18 17 17 17 17 17 16 16 16 15 15 15
5 5 5 5 4 4 4 4 4 4 4 5 5 5 5 6 6 5 6 7 7 8 8 9 9 10 10 10 10 11 11 11 12 13 13 14 16 17 16 17 17 16 16 17 17 18 17 16 17 18 18 19 19 19 19 20 21 20 19 20 20 21 20 19 19 20 20 20 20 20 20 19 18 18 18 18 18 17 17 18 17 17 16 16 16 15 15 15
5 4 4 4 4 4 4 4 4 4 5 5 5 5 5 5 5 5 6 6 7 9 9 8 10 11 11 11 11 11 12 13 13 13 13 14 15 17 17 17 17 16 15 17 17 17 16 15 17 18 18 19 19 19 18 19 21 20 19 19 20 21 20 19 20 21 20 19 19 20 20 19 18 18 18 18 18 17 17 17 17 17 16 16 16 15 15 14
5 4 4 4 4 4 4 4 4 5 5 5 5 5 5 5 5 5 6 6 8 11 10 9 10 11 11 11 11 13 13 14 14 13 14 15 15 17 17 17 17 16 16 17 17 17 16 16 17 18 19 19 19 20 18 19 21 20 18 19 21 21 20 20 21 21 19 20 20 19 20 20 19 19 18 18 18 17 17 17 17 17 16 16 16 15 15 14
4 4 4 4 4 4 4 4 4 5 5 4 5 5 5 5 5 6 6 7 10 12 12 11 11 11 10 10 11 13 14 14 14 14 14 15 15 16 17 17 18 17 17 18 18 17 17 17 18 18 19 19 19 19 18 20 21 19 18 20 20 20 20 20 21 21 19 20 20 20 20 20 19 18 18 18 18 18 18 17 17 17 16 16 15 15 14 14
4 4 4 4 4 4 4 4 4 4 4 4 4 5 5 5 6 6 6 8 10 11 12 11 11 10 10 10 11 12 13 13 14 14 14 15 15 16 16 17 18 18 17 18 19 17 17 18 18 19 19 19 19 18 19 20 20 19 19 20 20 20 20 20 20 20 20 20 20 20 20 20 19 18 18 18 19 19 19 18 17 16 16 16 15 15 14 14
4 4 4 4 4 4 4 4 4 4 4 4 4 5 5 5 6 7 7 9 11 11 11 11 10 10 10 10 11 11 12 13 14 14 15 15 15 16 17 17 17 17 17 18 18 17 17 17 18 18 19 19 19 18 19 20 19 20 21 21 20 20 20 20 20 20 20 20 20 20 20 20 20 19 19 20 20 20 19 18 16 16 16 15 15 15 14 14
4 4 4 4 4 4 4 4 4 4 4 4 4 5 5 5 6 6 8 10 10 10 11 10 10 10 10 11 11 11 12 13 14 15 15 15 15 16 17 17 17 16 16 17 17 17 17 17 17 18 19 19 20 19 19 19 19 21 21 20 20 20 19 19 20 20 20 20 19 19 19 20 20 20 20 21 21 20 19 19 17 16 15 15 14 14 14 14
4 4 4 4 4 4 4 4 4 4 4 4 5 6 6 6 6 7 8 9 9 9 11 11 10 11 10 11 11 11 13 13 14 15 15 16 16 16 16 16 17 17 16 16 17 17 17 17 18 18 18 20 21 20 19 18 19 21 21 21 20 20 19 19 19 18 19 19 18 18 19 20 20 20 18 19 21 20 20 19 18 16 15 15 14 14 14 13
4 5 5 5 4 4 4 4 4 4 4 4 5 6 6 6 7 8 8 8 8 9 10 10 10 11 11 11 12 12 13 13 14 15 15 15 16 16 16 15 16 17 16 16 17 17 17 17 18 18 18 20 21 20 20 20 20 20 21 21 21 20 20 19 19 19 19 19 18 17 19 19 20 18 16 17 20 20 19 18 17 16 15 15 14 14 14 13
5 5 5 5 5 5 4 5 5 4 4 5 5 6 6 7 7 8 8 7 8 8 9 10 11 10 10 11 12 13 13 13 14 15 15 15 16 16 16 16 16 17 17 16 16 17 17 17 18 19 18 20 20 20 20 20 20 19 20 21 20 21 20 18 18 18 19 19 18 17 18 17 18 17 15 17 19 19 18 17 16 16 15 15 14 14 13 13
5 5 5 5 5 5 5 5 5 4 4 5 6 6 6 7 7 7 7 7 7 7 8 10 11 10 10 11 12 13 14 14 14 14 14 15 16 16 16 16 16 17 18 17 15 16 17 17 17 18 18 20 20 20 20 21 21 19 19 20 20 20 21 18 17 16 18 20 19 17 17 16 17 17 16 17 18 17 16 15 15 15 14 14 14 13 13 13
5 5 5 5 5 5 5 5 5 4 4 5 6 6 7 7 7 7 6 6 7 7 8 10 11 11 11 11 12 13 14 13 14 14 14 15 15 15 16 16 16 17 18 17 16 16 17 18 17 18 19 19 20 20 21 21 21 20 20 20 20 20 20 20 19 17 18 20 18 16 17 17 18 18 16 16 17 16 15 15 15 14 14 14 14 13 13 13
5 5 5 5 6 6 5 5 5 5 5 5 6 7 7 7 6 6 6 6 7 8 9 10 11 11 11 12 12 13 14 14 14 14 14 14 15 15 16 16 16 17 18 18 18 17 17 18 17 18 20 19 19 20 21 20 20 20 21 21 21 20 20 19 19 19 19 20 18 16 17 18 19 18 17 17 16 16 15 15 14 14 14 14 13 13 13 13
5 5 5 6 6 6 5 5 5 5 5 6 7 7 7 7 6 6 6 7 7 8 9 10 11 11 12 12 12 13 14 14 14 14 14 15 15 15 17 16 17 17 17 19 19 17 17 18 18 18 19 19 19 20 20 19 19 20 21 21 21 20 20 20 19 20 20 19 18 17 16 17 19 19 17 17 16 16 16 15 14 14 14 14 14 13 13 13
5 6 6 6 6 6 5 5 5 5 6 6 7 7 7 6 7 7 7 7 8 9 9 10 10 11 12 13 13 13 14 14 14 14 14 15 15 15 16 17 17 16 17 19 18 17 17 17 18 18 17 18 19 19 20 20 19 20 20 20 20 20 20 20 20 19 20 19 19 18 17 18 19 19 19 18 17 16 16 15 14 14 14 14 13 13 13 13
4 6 6 6 6 6 5 5 5 6 6 6 6 6 7 7 7 7 8 8 8 9 10 9 10 10 11 12 13 14 14 14 15 15 15 15 15 15 16 17 18 17 16 17 18 17 17 17 18 18 17 18 19 20 21 21 21 21 21 20 21 20 20 20 19 18 19 19 19 19 20 20 18 17 18 20 18 17 16 15 14 14 14 14 13 13 13 13
5 6 6 6 6 6 6 6 6 6 6 6 7 7 7 7 7 7 8 9 9 9 10 10 10 10 11 12 13 15 15 15 15 15 15 16 16 16 16 17 18 18 17 18 18 17 17 18 18 17 17 18 19 19 19 21 21 21 21 21 21 20 20 21 20 18 18 18 18 19 20 20 17 14 16 19 19 17 16 15 14 13 13 13 13 13 13 13
5 6 6 6 6 6 6 6 6 6 6 7 7 7 7 7 7 8 8 9 9 9 10 10 11 11 12 12 13 15 15 15 15 15 15 16 16 16 16 17 18 19 18 18 18 17 17 18 18 18 18 18 19 18 18 20 21 20 21 21 20 21 21 21 20 19 19 19 18 19 20 20 16 14 16 18 18 17 16 15 13 13 13 13 13 13 12 12
5 5 6 6 6 6 6 6 7 6 7 7 7 7 7 7 7 8 8 9 9 10 10 11 12 12 12 12 13 14 15 15 15 15 15 17 17 15 16 17 18 18 19 18 18 18 17 17 18 18 18 18 18 19 18 19 20 20 20 20 20 21 21 20 19 19 20 20 20 20 20 19 16 15 17 18 17 16 15 14 13 13 12 12 12 12 12 11
5 6 6 6 6 6 6 6 6 6 6 7 6 7 7 8 8 8 8 9 9 10 10 11 12 12 12 12 13 14 14 15 15 15 15 16 16 14 15 17 17 18 19 18 18 19 17 17 17 18 18 17 17 18 18 18 19 19 20 20 20 21 20 20 19 19 20 19 19 21 20 16 14 15 17 17 16 15 14 13 13 13 12 12 12 12 11 11
5 6 7 6 6 5 6 6 5 6 6 6 7 8 8 8 9 8 8 8 9 10 10 11 12 12 12 13 14 14 15 15 15 16 16 16 16 15 15 16 17 18 19 18 18 18 17 17 17 18 19 18 18 18 17 18 19 19 19 19 20 20 20 21 20 20 20 18 19 20 18 16 14 15 16 16 15 14 13 13 13 12 12 12 12 12 11 11
5 6 7 7 6 5 5 6 5 6 6 7 7 8 8 8 9 9 8 9 10 10 10 11 12 12 12 13 14 14 14 15 15 16 16 16 16 14 14 15 17 18 18 18 18 18 18 17 17 18 18 17 17 17 16 17 19 20 20 20 20 19 20 20 20 20 20 19 20 18 16 17 16 14 15 15 14 13 13 13 13 12 12 12 12 12 11 11
6 7 7 7 7 6 6 6 6 6 6 7 7 7 8 8 9 9 9 9 10 10 11 12 11 11 11 12 14 14 14 14 15 15 15 15 15 15 15 15 16 17 18 18 18 18 19 18 17 17 17 15 14 15 15 17 18 18 19 20 20 19 19 19 20 20 20 21 21 18 16 19 18 15 15 15 14 14 14 13 13 12 12 12 11 11 11 11
7 7 7 7 7 7 7 7 6 6 7 7 7 8 8 8 9 9 8 9 10 11 11 11 11 11 10 11 13 13 14 14 15 15 15 15 15 15 16 16 15 16 17 17 17 17 19 18 17 17 18 16 14 14 14 16 18 18 18 19 19 19 19 20 20 19 19 20 20 18 17 18 18 16 15 15 15 15 14 13 13 12 12 12 11 11 11 11
6 6 6 7 7 7 7 7 7 7 8 8 8 8 8 8 9 9 9 9 10 11 11 10 10 11 11 12 13 13 12 13 14 15 15 15 16 16 17 17 16 16 17 17 17 17 18 17 16 17 18 17 15 14 14 16 17 18 18 17 17 18 18 19 18 16 17 18 17 16 17 17 16 16 16 15 15 14 13 12 12 12 12 12 12 12 11 11
5 5 5 5 6 7 7 7 7 7 8 8 8 9 9 9 9 9 9 9 9 10 10 9 9 11 12 12 12 12 12 12 13 14 14 15 16 16 16 17 16 16 17 17 17 17 18 16 15 17 18 17 16 15 14 15 16 17 18 16 16 17 17 17 16 15 18 18 15 15 17 17 16 16 15 14 14 13 13 12 12 12 12 12 12 12 11 11
5 5 5 5 6 7 7 7 7 8 8 9 9 9 9 9 9 9 9 9 9 9 9 9 10 11 12 13 12 12 12 12 13 13 13 13 14 14 14 14 15 17 17 17 17 17 18 17 16 17 18 17 16 15 15 16 17 18 17 15 15 15 15 15 15 14 16 17 15 17 20 18 16 15 14 14 13 13 13 13 13 12 13 13 12 12 12 11
Height
813 813 812 811 810 810 809 809 809 809 808 808 807 807 806 806 805 805 804 803 803 802 801 799 799 797 796 795 794 792 790 787 784 784 781 770 767 772 771 772 773 774 776 776 777 778 778 778 778 779 779 781 782 782 783 783 784 786 792 799 798 798 796 791 790 788 786 783 779 779 781 782 780 778 773 772 776 778 781 782 780 780 779 779 781 783 788 793
812 811 811 810 809 808 808 808 807 807 807 807 806 806 805 805 804 804 803 802 802 801 800 799 798 796 796 795 793 791 789 786 783 779 771 765 766 769 769 770 772 773 775 776 776 777 777 777 778 778 779 781 783 783 783 783 783 787 795 798 793 792 789 785 785 784 784 782 778 778 780 781 778 776 774 777 783 780 783 786 784 785 785 784 785 786 790 793
811 810 810 808 808 807 807 806 806 806 805 805 805 805 804 804 803 803 802 802 801 800 799 798 797 796 795 794 793 791 788 785 780 771 765 763 765 765 766 768 769 772 774 775 776 776 776 776 777 778 779 782 783 784 784 783 784 786 792 795 789 788 786 784 784 782 781 780 780 779 778 779 776 774 774 779 784 781 782 785 785 787 787 787 786 787 791 794
810 809 808 807 806 806 805 805 804 804 804 803 803 803 803 803 803 802 801 801 800 799 798 797 796 795 794 793 792 789 789 783 772 764 762 763 763 763 764 764 766 769 772 774 775 776 776 776 776 777 779 782 784 784 784 782 783 785 787 788 785 787 786 781 780 779 779 780 781 780 779 779 775 774 776 780 785 784 780 778 778 780 781 784 786 788 792 795
809 807 806 805 804 804 804 803 803 802 802 802 801 801 801 802 801 801 801 800 799 798 797 797 795 795 793 792 790 790 789 777 762 760 762 762 762 762 762 761 763 766 770 773 774 776 776 776 776 778 779 782 784 784 783 780 781 784 785 783 782 786 784 777 776 778 779 780 780 781 779 777 774 775 776 779 783 782 777 775 775 775 775 778 782 787 791 795
807 806 805 804 803 803 802 801 801 800 800 800 799 800 800 800 800 800 800 799 798 797 797 796 794 794 792 791 790 790 788 769 757 761 760 760 761 760 760 759 760 763 767 771 773 775 775 775 776 778 779 781 783 782 781 780 781 783 784 783 781 782 781 776 776 777 777 779 779 779 777 774 776 778 776 778 781 777 772 772 774 777 779 780 782 787 792 796
805 805 804 803 802 801 800 800 799 799 798 798 798 798 798 798 798 799 798 798 798 796 796 795 793 793 791 791 788 789 790 771 758 760 759 760 760 758 758 756 757 761 765 769 771 773 774 775 775 777 778 780 782 780 779 780 780 782 783 782 780 779 779 776 775 776 776 777 777 776 775 774 776 778 777 779 780 776 772 772 775 780 783 786 788 790 794 798
804 803 802 801 800 799 799 798 798 797 796 796 796 796 796 796 797 797 797 797 796 796 795 794 793 792 790 790 788 789 788 770 757 759 759 760 759 757 757 756 757 759 762 766 768 770 772 773 774 775 777 778 779 779 779 780 782 783 782 780 778 778 776 773 775 776 775 775 775 776 776 774 772 774 778 781 780 777 775 774 778 783 787 790 792 794 796 799
803 802 801 800 799 798 797 796 796 795 794 795 794 794 794 794 795 795 796 795 795 795 794 793 792 791 791 790 790 789 776 761 758 760 760 760 760 758 758 757 758 758 760 764 766 768 770 770 771 772 774 776 777 777 777 780 781 779 778 778 776 775 773 773 774 773 773 774 774 777 779 775 772 773 780 783 779 778 778 779 783 787 791 794 795 797 799 801
801 800 799 798 798 797 796 795 794 793 793 793 792 792 792 792 793 794 794 794 794 794 792 793 791 791 791 788 792 786 765 757 760 759 759 760 760 759 758 758 758 758 759 762 765 767 767 767 769 769 771 774 776 776 777 778 777 775 775 776 775 774 773 773 773 771 772 773 772 777 781 778 773 775 783 783 778 779 781 785 788 792 796 798 799 800 801 803
799 798 798 797 796 795 794 794 793 792 792 791 791 790 790 791 791 792 793 793 792 792 792 791 790 790 790 789 793 782 760 757 760 758 759 759 758 759 758 757 757 758 758 760 763 764 765 766 767 769 771 772 774 777 776 774 773 774 775 775 775 774 774 772 772 771 771 772 770 773 779 779 775 778 783 782 780 782 785 790 792 796 800 802 803 804 804 805
797 796 796 795 794 793 793 792 791 791 790 789 789 788 789 789 789 790 791 791 791 791 791 790 790 789 789 789 786 771 757 758 759 758 758 757 758 757 757 757 756 757 757 758 762 763 766 766 766 769 770 769 773 777 775 771 773 774 775 776 774 773 772 769 769 770 770 771 769 769 779 784 783 785 785 782 782 784 788 794 797 799 802 806 808 808 808 808
795 794 793 793 792 791 791 790 789 789 788 788 787 787 787 787 788 788 789 790 790 790 790 789 789 788 789 785 771 760 758 759 758 757 756 756 757 756 756 756 756 758 757 757 760 763 765 766 766 768 769 769 772 773 771 771 773 774 775 776 775 777 773 767 768 770 769 772 768 769 784 790 789 790 787 784 784 787 793 798 799 799 800 807 812 813 814 813
793 792 791 791 790 789 789 788 788 787 787 786 786 786 786 785 786 786 787 788 788 789 789 788 788 787 788 778 761 759 760 757 757 756 755 756 756 755 755 756 756 758 758 758 760 763 765 765 766 767 769 770 770 770 771 774 775 774 777 779 780 783 775 766 770 769 769 775 770 770 783 789 790 792 790 788 786 790 797 798 798 799 800 806 812 815 817 819
791 790 789 788 788 787 787 787 786 785 785 785 784 784 784 784 784 784 786 786 787 788 786 787 787 786 787 774 759 758 758 756 756 755 755 755 755 755 754 755 756 757 758 760 761 762 765 765 767 769 770 769 769 772 775 777 776 776 780 784 786 785 775 768 772 770 769 775 773 772 783 789 790 793 793 791 791 794 797 797 797 800 802 806 812 814 816 822
789 788 787 786 786 785 785 785 784 784 784 783 783 782 782 783 783 783 784 784 785 786 786 787 785 786 786 771 757 756 756 755 755 754 755 754 753 754 754 754 756 757 758 759 761 762 764 766 768 770 770 770 772 773 777 780 780 780 781 784 786 784 778 773 774 773 770 773 775 775 783 791 792 794 795 794 796 799 802 805 802 800 803 807 812 814 813 820
787 786 785 784 783 783 783 783 782 782 782 782 781 781 781 781 781 782 782 782 783 783 785 784 784 787 779 762 756 756 755 755 753 753 753 752 753 752 753 755 756 757 758 759 762 763 765 767 769 771 771 773 773 773 780 786 784 782 782 782 785 785 782 777 774 775 771 772 778 779 786 797 798 797 798 797 798 802 810 816 812 807 808 808 811 814 813 817
785 784 783 782 781 781 780 781 781 781 781 780 780 780 780 780 780 780 780 781 782 783 784 783 786 784 767 757 758 757 756 755 752 752 751 750 751 751 752 753 755 756 758 761 763 764 768 769 770 773 774 776 775 772 778 783 778 780 782 780 783 785 785 782 778 780 776 774 781 785 795 807 805 802 801 797 795 799 806 812 814 813 811 808 810 814 814 816
784 782 781 780 779 779 778 779 779 779 779 779 779 779 779 779 778 778 778 779 780 781 780 779 781 772 757 757 760 757 756 754 751 750 749 749 749 750 752 752 753 754 757 762 765 765 767 771 774 774 773 773 772 769 771 774 772 775 777 774 778 779 782 786 783 784 781 782 791 792 800 810 808 805 801 797 796 798 804 808 810 813 812 810 813 815 814 815
782 781 779 778 777 777 776 777 777 777 778 777 777 778 778 778 778 777 777 777 776 773 771 771 773 767 758 758 759 757 756 752 751 750 748 748 748 749 751 751 753 755 756 760 764 765 765 770 772 767 767 769 771 769 770 773 773 773 774 775 779 777 781 788 787 786 783 789 801 800 802 811 810 806 802 798 798 801 807 809 810 812 812 814 816 817 817 817
781 779 777 776 775 775 774 775 775 775 776 775 777 777 776 774 775 775 774 773 771 769 768 768 769 767 760 758 759 761 761 755 751 749 747 747 747 747 749 751 754 757 758 757 763 766 765 768 767 764 766 768 772 772 771 775 776 775 774 776 780 779 784 792 790 787 782 790 805 802 805 813 811 807 804 800 801 806 808 809 812 815 817 820 820 819 820 820
779 777 775 774 773 773 772 773 773 773 774 774 775 775 773 771 771 771 771 771 768 766 766 766 767 765 759 759 761 763 767 763 753 745 745 746 745 745 747 750 752 757 760 758 762 768 769 768 766 766 768 769 774 773 769 773 776 777 778 777 779 781 785 790 791 788 781 790 805 803 807 817 813 809 806 803 804 809 811 810 813 817 819 825 827 825 825 824
778 775 774 772 771 771 770 771 771 771 772 772 772 772 771 771 770 770 771 771 765 762 763 763 764 761 757 758 760 762 766 764 756 746 743 745 745 744 745 748 751 756 760 757 758 766 770 767 765 768 768 769 775 775 770 773 776 778 779 777 780 784 784 786 793 792 784 789 800 802 810 817 815 813 811 808 807 811 814 813 814 815 816 824 829 830 831 831
776 774 773 771 770 769 769 769 769 770 770 770 770 770 770 770 770 770 771 770 765 759 756 755 757 755 752 753 756 759 760 758 755 747 742 743 744 743 744 746 751 756 758 755 756 761 764 762 765 770 767 766 774 777 773 774 778 781 781 778 779 783 785 787 793 791 788 792 793 796 811 819 817 817 817 812 811 814 816 815 816 817 817 822 829 829 831 834
775 773 771 769 769 767 768 768 767 768 768 769 768 767 769 769 770 772 772 769 763 757 752 751 753 748 745 751 753 753 756 754 749 744 742 742 741 741 744 745 748 755 758 758 759 759 762 763 765 768 767 766 771 776 774 772 776 781 781 778 776 780 786 792 793 790 795 803 796 794 812 826 821 818 820 816 814 817 817 816 819 821 820 822 829 828 827 832
774 772 770 769 768 767 768 767 767 767 767 768 767 766 768 768 770 772 770 769 759 749 748 748 746 740 738 746 749 750 754 747 739 739 740 741 739 738 743 745 745 754 758 757 758 759 763 766 763 764 766 768 771 774 773 771 776 781 779 777 778 779 784 791 789 787 795 802 798 793 805 825 826 819 819 817 817 820 818 818 820 821 822 823 826 826 825 829
773 771 769 768 767 767 768 767 766 766 766 767 766 766 768 767 771 770 770 773 757 738 741 745 739 733 733 738 742 746 747 737 733 738 738 738 739 735 740 744 745 753 755 754 759 760 762 767 765 763 765 768 769 771 773 772 774 780 778 776 778 778 783 789 785 786 795 798 800 796 795 815 826 819 817 816 818 822 820 820 821 821 823 823 824 825 824 828
772 770 769 767 766 767 767 766 766 765 765 765 764 767 767 766 770 768 768 769 747 726 732 739 735 732 732 736 738 737 735 730 731 735 735 737 739 736 739 742 743 750 752 752 759 760 759 764 765 763 765 767 766 766 771 771 770 775 777 775 775 776 781 784 782 788 797 796 804 804 794 809 824 817 815 818 819 822 822 821 822 822 823 824 825 825 825 828
771 769 768 767 766 766 766 766 766 765 765 765 765 766 766 767 769 766 768 760 736 722 726 729 732 733 735 738 738 733 731 730 730 732 734 736 737 736 738 740 741 748 751 749 754 759 758 758 758 759 762 764 764 765 768 768 768 773 776 775 776 779 783 784 784 789 796 798 805 806 795 807 824 820 816 820 818 818 819 818 820 821 822 823 825 825 825 828
770 769 768 766 765 766 765 765 766 765 765 765 765 765 766 769 766 765 769 754 729 724 725 727 731 733 736 740 740 737 733 732 730 731 735 735 736 736 737 739 740 746 752 750 751 756 756 755 755 756 757 758 761 766 766 764 767 771 774 775 780 784 785 787 788 789 797 803 801 798 794 803 820 820 814 813 809 806 810 816 819 820 821 823 825 825 825 828
769 768 767 765 765 765 764 765 765 764 765 765 765 766 767 769 765 764 760 740 727 727 726 729 733 732 735 736 736 739 737 733 731 731 733 734 737 737 736 739 742 748 756 754 754 757 757 759 759 755 754 756 761 767 767 765 766 768 770 774 783 789 789 792 795 795 802 805 798 795 796 799 809 812 805 800 798 797 802 810 816 818 821 823 824 826 827 828
768 767 766 765 765 764 764 765 765 765 764 764 765 765 766 768 765 761 748 731 732 733 726 730 733 731 734 731 732 737 735 733 732 729 730 733 736 735 733 736 739 748 758 756 756 760 759 759 759 756 754 753 758 767 772 771 768 766 768 774 784 794 798 800 801 801 802 803 802 801 801 801 800 797 794 792 793 796 797 802 810 814 818 822 824 827 828 829
767 766 765 765 765 764 764 763 765 765 764 764 766 764 766 768 761 751 742 734 737 736 726 727 730 729 732 731 732 735 732 732 731 729 730 732 735 736 734 736 735 740 752 755 757 761 762 762 758 758 758 752 752 761 770 773 770 766 767 771 780 792 803 809 808 808 806 803 806 806 804 805 799 794 797 794 789 792 795 800 807 812 816 819 823 826 828 829
766 765 764 765 765 764 764 764 765 765 764 766 765 763 767 766 753 743 742 742 740 736 730 729 729 730 732 730 731 731 730 732 730 729 731 733 735 736 737 740 737 737 746 755 757 758 763 766 758 755 757 751 750 753 757 763 767 766 763 765 773 779 789 799 798 800 804 804 809 810 806 804 799 801 805 798 790 791 795 803 808 812 816 818 821 823 826 828
765 764 764 764 764 764 765 765 765 765 766 766 764 765 765 759 749 745 746 747 744 740 734 730 729 732 734 731 730 728 726 730 730 729 731 731 732 734 735 739 739 737 741 752 760 757 759 762 754 750 752 749 751 753 751 758 767 769 766 767 772 768 773 792 797 796 799 801 807 811 810 808 802 803 804 797 794 795 799 806 810 813 817 818 820 822 824 827
764 763 763 764 764 764 765 765 765 765 766 765 764 765 761 753 750 750 751 752 749 746 741 731 726 732 736 732 730 728 725 728 730 731 734 733 731 734 736 737 739 737 736 746 759 759 758 760 754 752 753 747 748 752 750 753 762 769 770 769 768 762 768 790 803 806 801 795 802 810 812 813 807 804 804 800 799 802 805 809 811 814 817 818 819 821 823 826
763 763 764 764 764 765 764 764 765 765 765 765 763 760 755 752 753 753 753 753 749 746 742 732 726 729 733 731 730 727 724 727 729 730 735 735 733 735 736 737 738 735 734 740 751 755 754 758 756 753 753 749 746 748 749 748 752 764 768 762 763 767 769 777 790 804 801 793 804 813 810 809 807 804 805 804 805 807 808 810 813 815 817 818 820 821 823 826
763 763 764 765 764 765 764 764 765 765 765 765 761 756 752 753 754 753 754 752 748 745 740 731 726 726 726 728 728 725 723 726 729 730 734 735 734 733 733 737 737 735 734 733 742 749 749 755 758 750 748 750 748 749 754 753 750 754 756 752 759 770 776 779 786 796 798 797 806 812 810 805 799 799 803 803 805 806 807 809 811 813 815 817 820 822 824 826
763 764 765 765 764 764 764 765 765 764 765 763 759 754 753 753 752 751 751 750 747 743 738 731 728 725 723 722 724 723 723 725 727 730 732 733 735 733 730 733 735 736 734 730 737 747 747 753 758 752 748 750 751 752 755 757 755 753 752 752 757 763 768 774 779 780 786 796 802 810 819 809 791 790 795 795 797 799 801 804 806 809 812 814 818 821 824 826
763 764 766 765 764 764 764 764 765 764 763 761 757 755 754 753 750 747 746 746 744 739 736 733 730 726 723 721 721 722 723 725 726 728 730 730 734 735 731 729 732 736 736 733 738 746 748 752 755 754 754 754 752 751 747 750 755 755 757 759 761 765 765 768 776 776 778 789 797 804 811 799 782 780 782 781 786 789 792 798 803 807 810 812 817 820 822 825
763 764 765 764 763 763 763 764 764 763 762 760 757 756 753 750 748 745 742 742 741 737 734 734 732 729 727 723 720 719 721 724 724 726 729 728 731 735 730 725 728 734 737 738 740 743 747 751 753 756 758 754 749 745 741 742 746 747 753 756 757 762 766 770 781 784 778 782 789 792 789 781 778 781 777 774 779 786 790 796 802 807 809 813 817 818 820 823
764 764 764 763 762 762 763 763 764 763 762 759 755 754 751 748 747 744 739 738 738 735 733 733 732 731 728 723 719 717 719 722 723 724 726 726 726 726 724 722 724 727 733 738 738 740 743 746 751 755 755 751 747 746 743 741 740 743 746 748 751 756 759 764 775 781 782 785 787 786 782 776 781 788 782 775 778 785 791 796 802 807 809 813 816 818 820 822
767 766 764 762 762 762 762 761 760 761 760 756 752 751 749 748 747 743 739 738 736 734 732 730 728 727 725 722 720 716 716 721 723 722 723 723 722 721 720 721 722 724 729 736 737 739 742 744 749 752 752 749 746 746 746 742 743 748 746 744 750 752 751 755 763 769 776 782 783 786 783 776 781 788 783 777 779 784 791 797 803 808 811 813 815 818 820 822
769 767 763 762 761 761 762 761 759 758 756 754 753 750 747 746 744 741 739 737 734 732 730 727 724 722 722 722 720 717 717 721 723 722 722 721 720 723 722 720 721 723 726 732 733 734 741 746 748 752 756 759 756 753 752 748 747 748 747 746 747 748 752 759 764 766 768 770 771 773 776 778 783 786 781 779 783 788 794 799 802 807 811 814 816 818 821 823
768 765 763 762 761 760 762 761 761 760 756 754 752 749 746 743 740 739 740 737 733 732 730 726 722 722 723 723 720 719 719 719 721 722 723 722 722 725 725 721 722 722 722 726 726 728 739 747 746 749 756 762 761 756 753 752 751 748 748 748 746 747 753 757 763 768 769 771 768 763 770 785 791 786 781 782 786 791 797 800 802 806 809 813 816 818 821 823
768 765 762 761 761 761 762 761 762 761 757 755 750 745 745 743 737 737 739 737 732 730 729 726 722 722 723 721 719 720 719 718 719 719 720 721 721 725 727 723 722 721 721 725 725 729 740 746 744 743 745 748 749 749 749 749 749 749 749 748 747 749 750 751 759 763 765 772 772 764 771 786 792 787 782 784 788 793 798 800 802 806 807 810 815 817 820 823
769 766 764 762 761 762 762 761 761 759 757 755 751 745 745 744 738 735 736 735 731 729 728 726 723 724 725 720 717 720 722 721 719 718 720 721 722 727 729 727 724 722 723 725 725 730 739 744 745 742 743 747 747 750 753 749 744 744 745 745 747 749 750 752 756 756 758 766 769 771 777 778 781 785 782 782 787 790 794 797 799 804 806 809 814 817 821 824
767 765 764 762 760 761 761 759 759 758 756 755 753 749 747 745 739 738 738 734 729 728 726 724 725 727 728 724 719 720 723 723 722 721 723 723 724 725 726 728 728 724 725 727 726 729 735 742 746 744 746 754 756 756 756 750 746 746 744 742 743 747 749 750 751 751 752 752 754 767 776 766 766 777 777 775 780 782 787 793 796 802 806 808 813 817 820 823
767 765 763 760 760 760 759 757 756 756 754 752 751 750 748 745 742 742 742 736 730 727 726 728 729 728 729 726 721 722 725 724 723 724 724 724 725 726 725 729 730 727 726 729 730 732 733 739 745 743 743 751 757 759 756 750 748 748 745 744 743 744 745 744 747 752 751 749 750 760 768 762 760 767 770 773 779 782 789 795 797 801 805 807 811 815 818 821
771 770 766 763 762 759 757 756 755 754 751 749 749 748 747 746 743 742 741 737 734 731 729 734 735 730 728 724 721 726 729 726 723 723 723 723 724 724 723 724 727 729 729 729 732 734 734 741 747 742 743 750 754 757 757 752 748 745 746 750 748 746 746 744 751 759 757 758 763 764 766 767 764 764 769 775 780 784 791 795 796 799 802 805 809 812 815 819
773 773 770 769 765 759 757 756 754 753 752 749 749 747 746 746 744 742 740 738 738 736 735 738 738 731 726 723 724 729 731 729 726 724 723 722 721 721 721 720 722 727 729 730 732 732 734 744 749 743 745 751 752 756 757 753 751 748 747 753 752 750 752 752 757 761 754 757 771 773 767 765 763 765 771 776 780 784 789 792 794 797 799 802 806 809 813 816
773 771 771 772 767 760 758 758 755 753 751 749 748 746 744 743 741 741 741 738 738 738 737 738 737 732 726 725 728 729 728 728 726 724 725 725 723 723 723 722 721 722 725 728 730 732 733 739 746 744 745 749 752 757 756 751 750 747 746 752 754 754 758 757 759 760 752 753 764 762 751 751 757 764 772 777 781 783 784 786 788 791 795 798 802 806 810 813
Wind_Speed
20 20 20 20 18 15 15 14 14 14 13 13 13 13 13 13 13 13 14 14 15 16 16 16 17 18 18 19 20 20 24 26 25 21 15 20 21 16 14 11 7 6 6 9 8 1 3 4 5 7 7 4 0 2 4 1 2 3 3 3 5 4 4 5 6 5 0 3 3 2 3 5 4 4 3 5 8 10 11 7 6 6 6 9 15 24 27 23
20 20 19 19 20 19 17 15 14 14 14 14 13 14 13 13 13 14 14 14 15 15 16 16 16 16 18 19 19 21 25 25 21 19 22 22 18 16 20 20 16 13 7 6 10 6 5 4 5 7 5 3 1 2 3 2 3 3 2 3 5 4 3 3 4 3 2 5 7 6 3 3 4 6 5 6 11 13 13 9 8 9 10 13 19 25 25 23
19 20 19 18 18 19 19 18 16 15 16 15 14 14 13 13 13 13 13 14 14 15 16 15 15 16 17 18 19 22 24 22 14 13 13 8 9 14 17 20 21 20 13 6 7 6 5 5 9 8 3 3 1 2 4 3 4 3 2 5 5 4 3 4 5 6 5 6 8 7 4 2 4 5 4 7 13 14 12 12 11 12 14 16 19 23 24 23
18 19 18 18 17 18 19 20 18 17 17 16 15 14 14 13 13 13 13 14 14 14 15 15 15 14 16 17 19 22 20 14 6 2 2 3 1 5 8 16 21 22 18 12 8 5 4 6 9 5 3 3 1 2 5 5 3 3 4 4 2 4 5 5 7 8 5 4 4 4 6 2 4 3 5 10 12 10 11 11 10 16 21 20 20 21 23 22
18 18 18 18 17 17 17 19 19 19 17 17 16 14 14 13 13 13 13 13 13 13 14 15 14 14 15 16 19 21 13 5 2 5 9 7 5 7 8 10 18 22 20 16 12 7 4 6 7 3 2 3 4 4 5 5 3 3 3 2 2 4 5 5 4 5 3 2 3 2 5 1 5 3 9 12 7 3 6 6 5 14 22 23 22 21 21 20
18 18 18 18 18 17 16 17 19 19 18 18 17 15 14 13 12 12 12 13 13 13 13 14 13 13 14 15 19 15 6 3 1 4 9 12 10 12 11 8 16 20 22 17 10 8 5 5 7 5 3 3 6 6 3 4 3 4 3 1 4 4 5 4 1 3 3 3 4 3 3 1 5 5 10 9 2 4 2 5 8 13 18 21 23 21 20 18
18 18 18 18 18 18 17 16 17 18 18 18 17 16 15 13 12 11 12 12 11 12 12 13 13 12 13 15 14 6 2 8 8 3 5 13 15 17 11 8 18 20 23 18 10 9 7 8 8 5 5 4 5 6 3 4 4 5 4 1 3 4 6 6 3 3 3 5 4 2 2 5 9 7 8 4 3 2 4 10 12 13 16 19 19 18 18 17
18 18 18 18 18 18 18 17 17 17 18 17 17 17 16 14 12 11 11 11 10 11 11 12 11 11 13 13 8 3 4 15 19 12 10 13 15 16 10 7 20 23 25 21 15 12 8 10 9 5 6 4 4 6 4 5 5 6 6 2 2 3 6 7 4 5 6 6 3 2 3 5 7 8 7 3 4 4 7 13 14 14 16 16 16 17 16 15
18 18 18 18 18 18 18 18 17 16 17 17 17 17 16 16 13 11 10 10 10 11 11 12 10 10 10 8 4 4 6 15 19 16 15 11 10 10 6 7 21 26 25 22 19 14 9 9 8 5 5 3 6 8 5 6 5 5 7 4 5 5 5 5 4 6 6 3 3 2 3 4 5 7 6 3 6 7 9 14 15 15 15 14 14 15 14 13
19 19 19 19 19 18 18 18 18 17 17 17 17 15 16 16 14 11 9 10 10 11 11 10 10 8 6 4 3 5 6 7 8 8 7 9 9 6 5 7 21 24 21 19 17 13 8 7 7 4 3 3 5 6 4 6 3 4 7 5 8 7 5 4 4 5 2 2 6 5 5 5 2 2 3 4 8 10 12 14 15 14 13 12 11 11 11 11
19 19 19 19 19 19 18 18 18 18 17 16 16 15 14 15 15 12 9 11 10 9 9 9 9 7 4 2 2 6 5 2 4 5 9 14 12 7 5 8 21 22 18 16 15 17 10 7 8 3 2 4 6 4 2 4 2 3 5 3 6 5 5 5 4 5 2 2 6 10 7 3 2 0 4 8 10 11 14 16 15 13 11 9 8 8 8 9
19 20 20 20 19 19 18 18 18 19 18 16 16 15 13 14 15 13 10 9 8 8 9 9 9 7 5 4 9 14 9 7 12 16 18 18 14 7 4 10 21 22 20 15 13 19 11 8 11 3 1 5 6 4 2 3 2 2 3 3 3 3 7 7 4 4 4 3 8 11 6 3 3 4 7 9 12 14 15 16 14 13 13 12 10 6 5 8
19 20 20 19 19 19 18 18 18 18 18 17 16 14 13 14 14 12 10 9 8 8 9 8 8 6 5 5 14 22 19 18 22 24 22 18 14 7 3 11 18 17 20 19 17 19 11 6 8 3 2 4 4 2 2 2 1 3 3 2 2 2 6 4 1 2 4 3 7 7 4 3 3 4 7 6 12 15 15 15 13 11 11 10 9 7 5 5
19 19 20 19 18 18 18 17 18 18 17 17 17 14 14 14 14 13 10 10 9 7 7 7 7 6 5 9 17 21 18 18 22 24 21 17 13 6 4 12 15 12 16 19 18 18 10 5 4 2 2 1 1 1 1 2 0 3 3 1 1 3 4 1 2 5 5 2 1 3 2 4 4 5 7 5 11 15 15 15 12 11 12 11 8 7 7 7
18 18 18 18 18 17 17 17 17 17 16 17 17 15 13 13 13 12 10 9 8 6 6 7 7 5 5 11 16 14 9 11 15 15 13 12 11 7 4 12 15 11 12 13 15 15 9 5 3 2 2 0 1 2 2 1 1 1 3 3 1 3 3 2 1 2 3 3 2 2 3 4 4 7 8 7 11 14 14 14 13 14 15 13 9 8 8 3
19 18 18 18 18 17 16 17 17 17 16 16 16 15 14 12 11 12 10 9 7 6 5 5 4 3 4 7 9 8 6 6 8 10 9 7 9 7 5 12 12 11 12 10 11 11 7 6 2 0 1 1 3 3 3 3 2 1 3 4 2 4 3 1 2 4 2 5 3 3 2 3 5 9 11 11 11 12 10 8 11 16 15 12 8 6 8 4
19 18 18 17 18 17 16 16 16 16 16 16 15 14 13 12 11 11 10 8 7 6 5 3 2 4 6 8 8 7 3 4 11 15 13 9 8 10 8 8 7 9 13 9 9 8 4 4 3 1 1 1 2 4 6 6 6 4 2 3 2 3 3 1 3 5 6 4 4 3 5 7 8 10 11 11 12 13 11 7 7 11 11 9 8 7 8 7
19 19 18 18 17 17 16 16 15 15 15 15 15 14 13 12 11 11 9 8 4 2 4 4 3 3 5 6 7 4 4 12 21 20 15 10 7 13 9 5 7 11 13 7 5 4 2 2 2 3 3 3 4 7 8 5 5 6 6 5 2 2 2 0 2 4 5 5 5 7 10 9 10 11 8 8 12 15 13 8 7 9 9 8 9 9 10 9
19 19 19 18 17 17 16 16 15 15 14 14 14 13 11 8 8 8 7 7 4 2 2 4 7 3 3 3 3 6 14 19 18 13 9 5 8 12 9 7 9 11 10 6 4 5 4 3 3 5 7 7 7 8 6 2 4 7 7 5 3 3 2 2 3 4 3 8 9 8 11 9 9 9 6 6 8 13 13 12 12 11 9 8 8 9 10 10
19 19 18 18 17 16 16 16 15 14 13 13 11 8 6 4 3 4 5 7 7 7 3 4 10 7 8 5 4 13 20 15 6 5 6 4 9 11 6 6 7 6 7 9 7 5 4 5 7 7 8 8 7 6 4 3 4 5 5 3 2 3 3 4 3 4 2 5 8 9 12 10 8 7 5 6 6 11 13 12 11 10 9 7 8 9 9 9
20 19 18 17 16 16 15 15 14 13 12 11 8 4 3 5 4 1 3 6 9 12 11 8 11 13 13 12 9 12 13 9 7 8 10 6 9 12 6 5 9 6 6 10 8 3 4 7 7 4 7 9 7 5 6 4 3 4 4 4 2 2 4 4 4 5 0 4 7 11 13 10 7 6 4 5 7 10 10 11 11 10 9 5 4 8 8 6
20 20 19 17 15 14 13 13 13 12 11 8 7 6 4 4 4 3 0 4 8 14 14 13 13 15 17 18 13 5 3 7 10 9 6 6 8 8 6 7 9 7 6 9 8 5 6 6 5 5 7 9 6 5 6 4 4 3 2 4 3 1 3 5 6 6 3 5 7 11 13 10 8 6 4 3 7 10 8 11 13 12 11 7 4 6 7 5
21 21 19 15 13 13 11 11 12 12 11 8 8 8 5 6 6 2 2 4 5 10 12 12 13 13 14 13 9 6 5 7 7 8 4 7 7 5 7 9 8 8 9 10 10 8 6 5 6 7 9 11 6 5 6 4 2 2 2 3 3 2 1 2 7 9 7 6 11 14 13 8 7 7 5 5 8 10 10 13 12 10 10 8 6 7 6 6
20 20 17 14 12 11 10 10 10 11 12 12 12 10 6 8 6 2 2 3 5 5 10 14 12 11 12 9 8 12 8 6 6 6 3 6 6 4 7 8 9 9 8 9 10 8 4 5 9 9 10 13 9 6 8 7 4 2 2 3 3 3 1 2 7 10 11 10 13 13 10 5 4 6 6 5 8 10 11 13 12 10 11 11 9 9 6 3
18 18 17 13 10 9 8 7 7 9 11 10 11 12 10 8 6 5 3 3 4 3 6 11 8 9 12 8 9 11 5 6 9 8 4 3 6 6 5 4 6 8 8 9 10 7 3 5 11 11 10 12 10 7 8 9 6 2 3 4 4 5 6 7 8 6 6 7 7 4 4 3 3 6 7 6 8 9 10 13 14 13 13 12 10 10 9 6
17 17 17 13 9 7 4 3 4 6 7 6 6 8 9 7 7 9 5 3 4 2 4 7 6 9 12 11 10 9 3 5 10 12 9 6 5 3 5 4 2 6 9 9 6 3 3 5 10 12 11 11 10 8 7 8 7 3 3 5 5 6 9 9 6 2 2 4 4 1 0 4 4 5 7 7 9 10 10 12 13 14 13 12 11 9 9 8
16 16 16 12 8 4 2 2 2 4 4 5 6 6 5 5 7 10 5 2 4 4 6 3 4 9 12 12 14 10 3 2 4 8 10 10 6 3 6 7 4 4 5 5 4 2 6 9 9 10 11 10 9 7 6 8 7 3 3 8 9 7 8 8 4 3 2 4 4 1 1 5 4 6 8 9 11 11 10 10 12 13 13 12 11 10 11 10
15 14 14 12 7 4 4 3 2 5 3 2 7 9 7 6 8 7 4 2 1 3 5 2 3 7 7 11 17 9 1 3 5 6 7 9 6 1 5 8 8 9 4 5 6 2 5 10 10 11 10 8 6 6 8 10 6 2 4 8 8 6 6 6 4 5 3 3 4 2 1 4 4 5 8 9 11 12 12 12 12 13 14 13 12 12 13 12
13 12 14 11 6 4 6 4 3 4 3 3 6 10 8 5 5 3 2 2 1 2 4 5 5 5 6 11 14 7 1 1 1 4 6 6 5 2 3 6 9 12 4 3 6 3 3 9 11 11 9 7 5 5 10 11 4 4 7 7 6 4 5 3 3 5 3 2 4 7 6 3 4 6 9 10 11 12 13 13 13 13 14 14 12 13 14 13
11 10 11 8 4 3 6 5 4 2 3 3 6 10 8 3 2 2 1 1 0 1 2 4 4 6 11 12 10 7 3 2 1 5 5 4 4 2 2 3 6 9 4 2 6 3 2 4 6 7 6 6 6 6 9 9 6 8 8 7 6 4 3 2 2 3 3 3 4 11 9 3 3 7 9 9 8 13 15 13 13 13 13 13 12 12 14 13
10 9 9 6 3 3 3 3 5 3 1 5 9 11 7 2 1 3 2 1 0 1 2 3 4 9 14 11 7 7 5 2 2 8 7 5 4 4 5 5 4 6 5 5 5 3 5 6 4 2 3 6 7 6 4 3 8 10 6 5 6 3 2 2 2 1 4 3 2 8 9 4 4 6 10 12 8 12 16 15 17 16 14 13 11 11 12 12
9 8 8 7 4 2 3 3 4 2 1 7 8 6 3 1 2 3 2 2 0 1 1 3 5 9 12 7 5 8 6 1 2 8 10 7 6 5 6 6 5 6 8 8 7 3 4 5 2 1 4 8 9 8 3 1 6 8 5 7 7 4 4 4 3 3 4 2 1 2 5 4 3 2 7 15 15 14 15 16 19 18 16 14 12 10 10 11
9 8 7 5 4 3 4 3 3 1 1 6 5 2 1 2 2 2 3 3 1 2 3 3 5 7 10 6 6 8 5 2 4 7 8 7 6 5 2 2 4 4 4 6 7 5 4 2 3 4 4 7 11 10 7 4 7 8 7 8 8 5 5 5 3 1 1 2 2 1 3 2 2 1 0 9 15 15 15 15 17 18 17 15 14 12 11 11
10 8 7 4 5 5 4 4 3 3 2 3 3 1 2 2 1 1 1 3 3 5 5 2 3 7 8 3 5 9 3 1 6 8 8 8 8 8 4 2 3 4 6 6 4 6 6 3 6 8 4 7 12 8 6 7 6 5 3 4 6 5 4 4 4 3 3 3 3 3 4 2 3 1 3 2 8 13 15 14 15 16 15 14 14 13 12 11
10 7 5 4 5 5 5 6 6 4 3 3 2 2 3 2 2 2 1 3 4 6 8 3 4 7 5 0 4 9 3 0 7 8 7 9 9 8 6 4 2 3 8 8 2 3 5 2 3 4 2 9 12 4 5 9 7 3 1 2 4 4 3 2 1 1 3 4 3 4 3 1 0 1 1 4 11 15 16 16 16 16 14 14 13 13 12 11
8 3 2 3 4 4 4 5 6 6 4 2 2 2 4 2 2 2 3 3 4 7 9 2 6 5 4 2 5 10 5 1 7 7 4 6 6 5 5 4 2 3 6 6 2 2 4 3 2 1 2 8 11 8 7 8 6 3 3 5 3 3 4 3 1 2 1 4 4 3 2 1 1 1 4 10 14 15 16 16 17 16 16 15 13 12 12 12
6 4 4 5 5 3 2 2 6 5 4 3 3 3 2 2 1 2 3 4 5 7 6 1 4 2 4 3 4 10 7 3 6 5 4 5 4 5 7 4 2 4 5 3 1 1 4 3 1 5 8 6 5 10 10 6 4 5 6 6 4 3 2 2 2 2 2 4 3 2 5 6 4 3 8 14 15 15 16 17 16 16 17 15 13 12 13 13
5 3 3 7 7 3 1 2 4 3 2 2 4 4 1 1 1 1 3 5 5 6 4 1 0 0 4 3 4 9 7 4 6 5 5 5 2 5 9 5 3 4 4 3 2 1 3 3 2 6 9 6 3 8 10 4 1 2 5 7 4 3 3 2 2 3 4 4 2 3 6 7 5 5 12 16 16 17 18 18 18 18 17 15 13 14 15 14
3 2 1 6 7 4 2 2 2 3 2 2 3 3 1 1 2 2 3 4 4 5 3 1 2 0 3 2 5 7 4 4 8 5 4 4 1 3 8 5 3 5 4 4 3 1 1 2 3 3 4 6 6 7 10 7 1 2 5 7 2 1 3 3 2 2 3 3 2 3 4 5 6 8 16 19 19 21 21 19 19 19 18 16 14 14 15 14
2 1 0 5 7 4 2 1 3 2 2 2 3 2 2 2 4 4 5 4 3 3 2 2 3 2 1 2 4 4 2 5 7 3 2 4 2 2 6 5 6 7 4 3 3 2 1 1 4 3 1 4 6 6 9 10 7 5 7 8 4 1 0 2 2 1 1 3 3 3 3 4 4 8 17 22 22 22 22 20 18 17 16 15 15 15 15 15
1 1 0 4 5 3 3 2 2 2 2 2 2 2 2 3 4 5 6 6 5 4 4 3 2 1 1 2 3 3 2 4 5 2 2 5 3 1 5 7 9 9 4 4 3 3 2 1 2 4 4 5 5 3 5 10 11 9 8 7 7 5 3 4 4 1 1 1 2 2 2 2 1 2 9 16 19 19 20 18 15 15 16 16 15 16 16 16
1 1 1 3 3 3 4 1 2 1 2 2 2 3 4 4 4 5 5 5 6 5 4 4 3 2 1 1 2 2 3 3 3 2 3 5 5 3 6 9 11 11 7 3 3 2 2 2 2 3 4 4 2 1 3 9 10 8 8 8 6 5 5 7 6 4 3 1 1 1 1 0 2 2 3 10 15 17 17 16 14 14 15 15 16 16 16 15
1 1 2 2 2 3 3 1 2 1 2 3 4 5 6 5 4 4 3 3 3 3 3 3 3 2 1 0 1 3 3 2 1 2 3 5 5 2 6 9 11 12 9 3 3 3 2 2 3 3 2 1 1 2 1 7 9 7 7 8 7 6 5 4 2 4 5 5 4 2 3 2 2 2 2 7 13 15 15 15 15 13 12 14 16 16 13 12
2 2 2 1 1 1 2 2 2 3 3 4 5 6 5 5 4 4 4 3 2 2 1 1 1 1 1 0 1 2 2 0 0 1 1 2 2 0 5 9 10 11 8 4 4 5 2 1 3 5 5 5 4 3 3 6 7 6 5 6 8 8 6 3 2 3 5 6 7 6 5 2 2 0 5 9 13 15 14 14 15 14 13 14 15 13 10 10
3 1 1 1 0 0 1 2 2 4 5 6 6 5 4 4 5 5 5 5 4 3 2 2 1 1 0 0 2 2 2 1 1 0 1 1 1 2 4 8 8 8 7 5 6 5 2 2 3 5 7 7 7 6 4 4 4 3 3 7 10 10 10 5 3 4 5 4 7 6 3 1 0 4 11 13 15 15 14 15 15 14 15 15 13 13 11 9
1 0 1 1 0 0 2 2 2 4 5 5 5 3 3 4 3 5 5 4 4 4 3 3 2 1 1 1 3 3 2 3 1 1 1 2 2 2 2 5 7 7 7 8 9 5 1 1 2 2 4 4 3 2 1 3 6 6 5 8 9 9 10 8 4 5 4 4 5 4 3 5 7 10 15 16 15 15 15 16 15 14 16 16 14 14 13 10
0 0 1 1 1 1 2 2 3 4 4 4 4 4 5 7 6 1 3 3 3 3 2 1 2 3 1 1 4 3 1 3 2 3 2 2 2 2 2 2 4 6 7 9 9 5 2 2 2 2 2 1 1 2 1 3 7 9 8 10 10 9 10 10 7 4 6 5 4 4 6 8 10 14 17 17 16 16 17 18 16 15 16 16 15 15 14 11
1 1 1 1 2 1 0 2 4 5 6 4 2 4 6 8 9 6 1 3 3 3 0 1 5 7 4 1 2 3 2 2 1 3 2 1 2 3 3 3 1 2 4 7 6 3 2 4 3 3 3 2 2 0 2 2 3 4 7 10 11 11 12 13 10 7 9 7 5 7 11 10 10 17 21 18 17 18 19 18 17 16 17 17 17 18 17 14
1 2 2 1 3 3 3 5 6 7 7 4 2 3 5 8 10 6 3 4 3 4 3 3 6 9 6 2 2 3 2 1 1 2 2 1 1 2 3 3 1 1 3 6 4 1 2 3 3 4 3 2 3 2 3 4 2 2 5 7 8 11 14 14 9 6 7 4 1 9 15 9 5 14 20 16 12 12 13 14 15 17 19 18 19 19 18 16
1 2 3 3 4 4 4 5 5 5 4 3 1 1 3 5 8 7 5 3 3 5 4 4 7 8 6 5 6 5 3 1 0 1 3 3 2 1 2 2 3 2 3 5 4 1 2 2 3 4 4 1 3 3 1 4 5 5 4 3 5 8 9 7 4 4 4 2 2 8 11 5 1 9 15 13 10 10 13 14 16 18 20 20 21 20 18 16
2 3 4 3 3 3 3 4 4 3 3 2 2 3 3 4 7 9 5 1 2 4 3 4 7 6 3 8 11 8 5 3 2 2 1 2 1 1 1 1 5 6 5 4 3 2 2 1 2 3 4 2 1 2 1 3 4 4 4 3 4 6 4 1 2 3 5 7 8 8 6 4 5 12 15 13 12 14 17 18 17 18 20 21 21 20 17 16
4 3 3 2 3 2 3 4 3 1 2 2 2 5 6 6 7 7 4 1 1 1 1 3 6 4 3 8 10 8 7 6 5 3 1 1 2 3 2 2 3 5 5 5 3 2 3 4 2 3 4 3 1 1 1 3 4 3 3 4 5 3 2 1 1 3 5 9 10 6 4 5 11 17 18 17 17 18 19 19 18 19 21 21 19 18 17 16
Wind_Direction
326 327 327 327 322 308 293 287 287 292 295 297 302 305 307 313 316 318 322 323 325 327 326 327 326 327 328 327 326 322 319 316 312 308 281 258 254 242 240 245 228 220 241 233 222 195 123 138 137 144 145 146 197 160 163 161 144 180 179 204 216 197 188 181 188 187 274 311 280 312 25 323 283 133 127 134 130 135 130 100 96 93 69 105 121 131 141 146
323 323 324 323 322 322 314 298 286 285 287 289 295 300 303 308 311 316 319 320 325 325 326 327 326 327 327 329 328 321 320 316 307 290 270 264 268 257 245 246 245 245 260 229 218 202 161 157 150 147 142 158 181 157 173 168 184 195 150 215 220 178 183 194 200 207 239 285 307 316 1 301 238 141 148 162 151 149 138 127 122 114 105 116 129 136 142 146
322 320 322 321 317 318 318 313 300 287 281 281 286 293 298 303 308 313 315 320 323 323 324 326 329 328 326 327 324 322 321 315 300 274 273 281 266 256 246 242 242 242 244 226 198 197 204 185 164 154 140 164 163 169 175 172 190 191 182 230 223 182 227 232 223 238 238 275 306 309 335 289 205 148 167 171 162 168 159 146 145 148 141 140 143 141 145 149
322 320 321 321 319 313 311 313 310 299 287 279 281 287 290 296 305 308 313 319 319 322 324 326 329 327 326 327 322 325 324 307 279 214 31 48 287 283 260 240 233 231 229 219 208 228 238 173 160 152 146 163 142 170 179 182 179 169 199 228 181 158 229 235 223 243 250 262 283 303 324 282 165 148 167 160 165 186 184 171 167 166 157 151 151 146 148 150
321 322 323 321 320 316 309 306 306 306 299 285 278 280 282 288 299 304 310 314 315 320 320 324 328 326 327 323 322 328 323 288 181 89 51 31 343 342 316 246 220 221 217 214 219 228 223 158 149 146 155 160 156 169 189 186 163 174 199 227 169 161 230 251 226 236 235 224 236 277 314 267 151 171 173 171 181 204 196 191 179 168 160 155 153 147 149 151
321 321 322 319 319 318 312 306 301 303 304 294 281 275 277 281 290 300 305 310 315 317 318 322 324 328 327 320 325 327 295 267 82 82 37 15 343 338 327 245 207 206 202 201 200 192 193 159 161 174 164 158 174 178 179 172 179 212 195 209 229 208 236 266 220 202 191 224 259 260 300 184 171 179 172 181 284 341 118 133 143 160 159 152 147 145 149 152
318 318 318 317 317 316 314 308 301 299 300 300 289 276 273 276 282 291 300 306 312 315 318 320 323 329 327 326 331 330 254 277 268 230 359 357 339 337 342 219 198 191 186 183 175 179 181 169 175 173 162 161 182 189 160 150 193 231 214 214 234 213 233 251 243 232 235 251 264 233 246 212 193 172 162 169 19 34 114 121 137 149 149 145 141 142 149 149
315 315 315 315 315 315 314 309 304 298 295 299 296 283 272 271 274 281 293 299 305 312 316 317 324 331 330 341 348 329 263 256 253 256 296 334 343 342 356 186 188 178 174 176 176 177 174 173 175 161 176 177 171 183 163 154 189 222 221 235 233 211 232 246 256 258 259 254 232 189 225 216 187 148 140 128 85 109 120 125 135 140 142 140 138 142 148 147
312 313 312 312 313 312 313 310 305 300 295 295 297 292 279 272 270 275 286 288 299 307 311 316 319 328 333 358 15 296 264 253 257 267 282 318 357 350 350 181 180 173 171 177 177 173 175 177 177 182 188 166 171 178 174 191 197 206 208 226 243 245 254 253 260 251 253 231 172 136 121 129 133 128 123 108 113 120 120 125 129 135 137 135 138 143 142 137
309 310 310 309 310 310 311 310 305 299 296 293 293 292 281 273 269 269 276 280 293 303 306 310 313 327 342 20 25 280 268 270 265 252 281 336 357 351 324 202 182 175 166 168 173 173 183 182 173 190 180 144 174 170 164 195 176 171 196 228 246 257 280 262 261 252 260 227 180 142 124 125 121 166 140 123 125 122 122 122 123 127 126 125 130 134 132 126
306 306 306 306 306 307 308 308 305 299 296 294 291 290 282 274 269 263 266 277 289 304 305 302 309 320 317 347 293 253 254 268 245 259 311 324 325 336 323 208 185 180 166 161 176 181 188 186 168 161 178 158 160 160 179 192 138 149 185 238 247 258 273 241 255 254 234 245 177 138 131 117 48 304 129 129 126 121 121 115 110 104 87 80 90 108 124 126
303 302 302 302 302 303 305 305 304 300 298 296 292 291 286 275 269 260 258 273 284 299 306 303 310 312 295 280 240 239 255 281 284 295 301 305 308 314 308 201 187 185 170 160 178 188 191 183 175 166 134 159 151 160 189 171 133 139 169 248 243 266 259 227 240 242 193 188 158 137 134 104 56 83 111 125 128 121 113 100 87 77 63 47 42 61 118 131
302 299 296 296 298 299 300 303 303 301 299 297 293 293 291 278 266 255 254 265 268 285 303 304 304 301 296 273 248 255 275 290 295 296 288 292 303 293 221 187 187 191 183 174 174 182 181 156 170 167 135 167 155 152 130 124 157 159 152 267 245 251 248 215 129 180 162 152 155 154 167 126 80 83 92 115 131 121 105 95 88 84 83 69 49 36 32 60
303 300 295 291 291 292 296 299 300 300 298 296 293 291 291 282 267 253 248 256 260 281 297 295 293 292 278 262 265 276 289 292 291 291 285 286 293 284 200 179 180 194 192 179 170 176 172 113 101 125 151 205 148 138 91 89 159 170 158 232 234 220 219 121 91 177 158 105 160 226 207 118 104 99 73 76 120 115 107 106 105 102 102 98 90 77 49 16
310 305 300 293 288 287 291 294 296 297 296 294 292 290 290 285 270 251 240 247 258 274 284 284 285 286 280 270 277 292 299 290 289 295 301 288 264 263 228 180 173 178 173 161 162 171 171 126 94 150 159 356 163 160 136 124 98 139 188 194 181 212 212 44 36 211 159 112 15 288 175 98 99 106 73 64 103 109 115 121 120 113 105 101 96 90 86 39
317 310 304 298 290 285 285 288 291 293 293 292 289 288 289 287 270 249 239 239 252 269 278 285 265 227 261 279 291 304 289 280 299 311 321 296 242 227 177 161 155 154 147 137 148 155 151 138 129 184 139 158 179 161 142 160 167 164 217 197 167 198 216 25 65 355 4 129 79 339 155 86 92 103 79 70 87 89 86 97 115 114 107 105 108 107 108 115
320 314 307 301 292 286 282 282 287 290 292 290 286 285 287 288 270 250 239 231 250 274 256 232 179 208 251 280 301 307 304 304 318 317 307 295 239 201 164 134 127 131 125 115 130 133 126 146 155 164 140 169 170 165 173 186 187 178 199 197 189 189 196 181 114 21 2 124 119 57 79 70 74 87 85 87 96 93 72 52 77 98 104 112 119 128 124 128
321 318 311 303 295 288 281 279 283 287 289 288 288 287 285 285 270 258 246 228 236 274 232 219 212 226 241 272 303 326 352 320 315 312 295 282 220 195 184 140 133 129 117 106 121 131 139 160 165 159 165 188 184 189 190 187 174 160 169 184 193 180 189 295 88 8 358 87 100 94 90 76 73 83 97 114 123 124 119 119 119 112 121 127 129 139 136 132
322 320 315 307 298 291 283 277 277 281 286 286 289 288 285 288 275 261 242 213 186 175 206 193 195 226 307 274 302 338 327 315 309 301 277 244 196 189 177 142 137 135 134 140 152 160 155 132 162 184 189 189 183 193 190 135 136 150 168 182 180 176 158 76 62 352 12 77 70 94 105 94 89 98 129 158 143 130 128 136 141 138 132 126 130 138 136 134
324 320 317 310 300 291 283 276 273 276 282 283 285 285 272 255 245 244 212 199 203 219 245 178 193 247 305 299 332 340 326 320 320 292 273 223 173 167 158 136 132 139 154 152 150 163 163 168 187 192 181 168 162 173 149 103 133 142 158 162 166 166 108 81 52 350 326 77 69 95 100 95 102 111 141 175 151 120 123 138 142 137 127 127 140 133 127 129
327 322 318 312 301 291 283 276 270 270 275 274 270 259 243 227 218 205 190 207 216 224 242 227 208 239 266 275 314 354 340 322 319 287 272 249 173 162 170 162 150 158 158 139 126 128 184 191 189 167 149 152 154 146 122 107 111 123 157 156 167 164 98 90 37 6 62 101 98 103 90 90 108 116 137 161 137 116 123 137 125 101 78 67 143 127 110 109
327 325 319 312 303 291 282 275 265 263 266 262 242 233 255 230 164 81 47 243 226 216 231 238 231 246 255 262 279 332 327 288 300 295 266 221 196 180 169 166 161 155 143 139 130 141 191 196 162 140 146 146 143 150 147 135 114 108 142 148 167 168 117 111 53 37 86 104 120 109 90 93 96 100 117 110 108 99 99 116 107 89 69 42 45 69 49 50
330 329 322 315 307 291 280 270 260 258 253 240 222 223 238 204 167 69 295 276 259 213 213 224 228 242 249 253 245 205 217 241 263 287 256 187 200 189 162 164 156 145 152 165 161 160 184 184 153 148 148 143 144 169 167 161 149 127 136 157 159 140 162 122 67 66 79 105 132 114 95 98 88 87 83 73 101 96 95 110 104 99 100 91 77 67 36 11
332 332 326 318 309 291 279 268 256 251 244 234 225 223 223 202 198 285 252 254 281 224 211 213 214 229 234 235 193 183 211 221 218 267 264 186 186 164 163 158 141 148 164 165 160 155 145 141 145 148 154 152 154 171 173 183 203 181 179 184 133 112 81 95 105 96 84 102 130 117 99 97 91 106 98 98 119 105 108 120 115 113 111 110 116 111 101 45
332 334 333 325 311 295 282 268 254 247 239 232 232 233 236 226 223 242 226 254 269 236 219 206 205 231 218 195 170 173 204 228 219 238 266 221 191 157 152 157 150 160 156 145 152 157 127 130 145 150 161 157 154 171 182 185 193 205 211 196 140 129 116 119 139 127 92 119 149 131 110 120 117 124 125 140 138 116 122 129 127 129 121 122 136 129 120 115
330 336 337 330 313 297 273 262 258 236 222 220 226 223 226 229 225 222 219 289 265 198 170 172 180 202 186 169 164 165 194 234 219 220 228 238 233 185 155 156 140 156 149 140 152 162 128 149 158 155 156 155 157 176 188 184 185 201 194 157 132 126 127 138 155 145 105 130 149 276 108 135 156 148 143 154 147 130 128 132 134 136 132 135 143 135 127 127
327 332 337 335 316 282 234 295 260 190 193 216 201 174 171 180 203 217 220 291 264 168 142 161 185 176 169 166 162 162 195 178 159 193 212 220 237 264 176 162 130 146 154 144 163 172 136 154 168 157 154 161 169 176 183 186 183 180 154 142 138 137 140 149 141 103 113 111 109 329 22 123 171 172 157 156 147 140 139 140 140 141 140 142 146 140 132 134
325 328 334 336 317 260 238 290 244 187 175 168 176 167 148 152 185 213 226 220 230 123 134 163 177 158 150 160 165 173 227 128 140 167 191 205 215 263 173 167 142 141 165 177 166 135 137 162 169 156 157 172 175 156 159 177 182 155 151 145 140 142 140 145 126 99 121 149 140 185 170 134 167 169 160 164 158 154 157 156 153 150 149 149 153 146 131 129
325 326 330 333 320 247 231 254 245 199 159 127 169 172 166 168 183 208 261 210 150 105 129 134 149 143 122 151 176 207 298 92 178 143 144 184 213 248 163 157 139 133 142 192 152 120 165 174 167 159 167 174 161 141 158 176 182 125 137 124 98 92 93 108 131 109 125 205 175 182 194 152 160 178 171 173 177 176 171 164 161 159 156 156 155 145 133 131
324 324 331 340 333 240 223 234 242 210 139 150 160 154 151 164 198 184 220 227 183 87 119 131 156 150 143 153 183 221 250 320 63 121 129 164 194 246 76 103 126 127 113 135 142 126 110 144 156 168 175 158 145 150 168 174 141 125 130 114 97 85 73 73 70 98 167 226 183 182 191 175 174 191 186 187 189 181 174 164 163 162 157 157 153 145 141 138
325 323 331 337 325 251 221 226 228 229 167 160 156 152 148 135 226 199 188 216 154 68 98 133 132 142 156 161 166 196 223 298 142 148 153 159 169 169 137 134 129 127 140 160 157 114 98 130 158 190 163 135 132 146 173 161 141 144 138 128 129 111 106 125 85 144 210 209 168 181 185 196 205 195 198 203 193 179 177 167 164 163 157 153 146 142 142 137
335 326 326 328 325 251 233 221 199 210 153 157 159 168 181 194 234 223 246 276 211 80 60 131 144 157 171 168 136 164 183 204 174 164 156 155 163 164 159 163 156 150 163 169 163 125 113 144 168 166 167 157 146 147 156 157 169 172 154 155 168 158 162 185 171 190 209 176 36 169 174 203 224 190 201 201 192 187 185 172 164 161 154 150 143 137 135 132
343 326 320 324 325 273 238 207 182 353 77 165 177 190 211 220 221 235 283 317 14 358 19 108 166 167 164 161 143 160 169 143 167 166 152 147 154 159 135 100 129 137 149 155 155 145 137 178 182 154 164 173 167 167 169 172 186 186 168 174 187 174 172 188 174 159 173 136 39 101 162 211 206 92 265 198 190 184 180 173 165 158 152 149 144 139 135 131
342 323 314 307 299 280 241 217 238 314 329 212 212 194 209 231 269 278 315 353 349 336 353 44 144 149 154 159 150 161 169 156 171 167 156 156 165 172 162 130 125 93 113 143 160 164 163 173 176 164 153 175 180 181 155 141 170 187 159 172 189 182 182 187 176 171 150 124 74 120 171 207 171 117 340 216 173 165 165 164 157 152 149 148 145 142 138 136
340 319 311 308 302 294 270 257 258 276 282 245 210 208 236 249 304 315 10 359 336 337 338 340 127 137 159 150 144 173 202 157 167 168 163 166 170 169 156 158 177 121 141 159 165 170 158 112 170 170 139 172 177 171 120 140 167 194 113 161 193 181 150 124 144 130 122 125 126 157 183 304 31 359 315 166 154 153 152 149 149 150 149 150 149 146 144 143
354 357 10 7 340 327 297 256 232 236 246 228 193 234 260 265 319 349 20 350 320 326 329 312 139 135 166 146 154 185 215 111 158 167 163 163 163 159 145 140 176 160 154 156 135 163 152 116 162 171 168 186 173 156 167 177 164 149 183 193 174 107 109 116 94 48 99 172 162 147 138 124 192 176 148 151 149 147 146 147 152 153 154 158 156 152 150 149
28 70 60 32 15 351 322 220 201 218 228 210 213 241 274 264 320 8 354 326 302 297 308 156 148 153 166 155 155 180 188 139 156 171 159 159 163 158 148 140 179 164 149 147 125 203 166 126 141 182 181 195 172 162 186 211 149 149 190 176 112 69 75 127 150 119 186 197 160 139 165 169 183 173 151 149 146 148 151 153 155 156 160 163 160 156 153 151
39 85 60 25 16 9 3 179 190 223 234 221 241 251 281 244 216 351 315 312 306 290 298 99 121 196 159 160 151 170 180 155 156 163 157 170 194 156 149 148 190 167 145 149 136 207 198 139 144 204 186 162 151 176 185 209 254 159 170 153 135 196 196 165 168 168 180 189 152 146 173 190 206 175 157 155 157 163 162 161 162 164 166 164 158 158 154 152
49 84 52 10 11 39 82 169 219 261 252 243 258 260 309 296 259 257 268 291 299 282 291 19 8 38 160 156 143 160 173 152 154 150 157 178 242 169 163 156 175 172 151 148 149 161 220 158 158 210 190 147 158 195 190 182 177 64 149 166 185 269 190 168 163 171 180 184 167 144 165 214 227 183 170 169 171 172 169 170 171 169 168 164 159 159 155 154
58 76 232 355 10 41 50 272 256 264 242 257 281 277 319 303 268 244 237 255 281 277 282 335 360 33 129 129 136 150 120 134 148 136 155 167 121 187 195 168 156 166 144 113 144 161 139 195 172 142 127 170 178 203 195 173 160 160 174 183 178 114 128 173 143 85 174 179 169 157 180 218 213 183 184 182 178 176 174 172 170 167 166 162 158 157 155 157
16 79 277 351 10 16 351 309 250 254 251 272 275 258 279 286 278 273 258 244 246 258 263 271 304 354 72 113 129 143 106 121 141 114 138 166 156 215 207 176 155 157 142 110 148 184 162 175 176 147 171 194 176 175 191 179 174 177 181 183 180 167 160 185 188 145 104 152 163 171 204 202 147 181 203 192 182 177 172 166 162 163 163 159 157 157 156 157
359 74 340 345 7 354 341 280 208 255 256 267 268 256 274 281 274 281 279 253 240 241 242 247 247 242 239 108 110 128 119 115 134 123 139 175 192 191 180 171 157 154 157 148 165 187 144 137 156 157 182 196 172 35 216 192 180 180 191 186 176 172 181 200 202 155 136 137 119 141 273 165 93 5 257 201 183 174 167 160 155 157 158 154 154 157 155 151
27 345 294 331 356 343 336 258 218 249 239 256 273 266 267 268 264 275 284 268 246 228 220 230 220 206 229 283 122 135 130 109 103 118 131 172 198 199 161 160 156 158 163 164 169 166 148 153 162 143 129 197 237 360 247 191 179 189 204 187 174 182 189 204 184 146 174 181 152 180 233 197 70 360 239 179 167 165 163 157 149 146 150 151 151 153 148 137
319 282 260 310 344 333 327 307 298 299 285 278 278 275 266 252 252 274 288 275 258 264 269 259 208 181 316 322 129 127 130 94 27 92 96 159 198 47 148 157 159 164 172 181 174 169 175 197 172 158 150 164 185 175 175 188 190 200 198 184 190 182 155 126 101 163 205 190 170 196 218 187 29 333 178 158 152 157 157 154 151 145 146 151 151 148 140 129
299 263 235 252 350 18 283 289 296 294 296 292 283 286 289 265 237 242 273 278 258 258 283 284 249 191 236 74 93 79 60 60 129 157 75 127 65 50 146 167 166 167 180 182 160 152 166 178 169 174 170 171 183 190 185 174 176 207 195 188 197 183 164 157 146 188 217 181 176 207 207 143 265 183 170 164 159 158 156 155 155 151 151 153 151 147 143 137
320 248 297 275 128 183 236 251 261 267 295 313 311 319 340 335 282 223 237 257 248 246 263 284 289 162 181 122 98 83 40 39 78 164 142 130 105 57 139 176 174 173 175 166 151 133 113 164 153 176 179 172 169 170 147 156 172 190 189 187 197 189 175 177 181 196 187 145 179 218 135 147 187 183 172 170 166 159 157 159 159 156 155 154 153 153 150 145
57 251 304 301 296 257 240 255 240 245 300 330 333 336 338 339 338 289 198 225 258 267 250 273 29 43 34 100 101 101 56 41 89 153 148 98 89 71 60 138 181 186 170 162 157 132 122 189 175 165 170 132 107 116 111 187 193 193 184 183 194 191 182 192 205 174 138 152 202 192 150 165 188 188 180 174 168 164 165 168 164 159 159 155 153 156 153 148
244 272 254 255 284 281 279 279 255 265 291 295 300 317 323 344 0 9 313 268 290 307 275 75 27 16 357 311 125 121 115 82 108 156 142 89 105 106 79 78 197 225 168 164 163 130 156 193 186 182 168 107 60 35 192 197 203 200 198 197 193 187 188 200 204 168 162 198 216 168 176 190 188 188 188 180 173 170 168 167 160 157 161 157 155 158 158 154
294 299 290 283 294 291 287 288 284 290 297 289 280 304 318 347 4 2 307 299 333 360 38 43 360 354 352 352 119 111 97 117 175 190 165 118 96 113 110 110 137 268 158 159 160 150 196 183 164 183 185 110 33 341 216 196 182 202 219 217 201 194 197 200 196 169 172 209 173 162 183 201 190 188 189 179 163 154 152 156 156 159 164 160 159 162 161 158
357 315 319 315 296 290 286 293 299 306 317 322 328 317 311 337 353 348 324 322 344 351 27 40 354 344 0 43 73 76 42 7 153 166 169 152 119 156 174 148 151 147 146 160 165 201 222 187 147 165 188 213 20 17 229 203 199 208 219 226 213 205 206 199 167 139 142 114 100 161 178 201 214 176 173 162 146 143 152 160 163 166 167 164 165 165 161 158
320 296 322 325 306 310 313 313 312 318 341 350 349 350 339 330 343 344 335 317 318 333 16 32 354 336 11 48 53 46 8 321 331 12 170 188 130 150 199 186 156 149 150 164 162 166 183 161 112 157 188 213 34 30 280 178 181 224 235 212 193 192 199 181 135 177 174 140 130 147 176 205 179 162 158 154 154 159 166 169 169 171 170 168 167 165 161 159
319 311 343 329 295 324 341 326 321 339 354 335 322 340 339 327 332 341 348 336 303 293 113 18 358 344 20 41 37 10 329 293 289 314 229 189 73 82 74 76 127 142 158 164 147 143 160 145 138 174 193 205 175 2 268 175 175 234 243 186 168 159 175 178 162 233 196 148 141 162 193 168 157 158 159 163 169 173 175 176 175 173 173 170 165 162 160 159